Simultaneous Nadir Overpasses (SNOs) Predictions

Prediction of SNOs over PacNW region [( 10.00, 139.50) to ( 22.70, 165.60)] between AQUA and NPP Satellites:

Table of predicted SNOs over PacNW region for the next 30.0 days since TLE Epoch: 4/1/2023
Index Date (AQUA) Time (AQUA) AQUA Lat,Lon Date (NPP) Time (NPP) NPP Lat,Lon Distance(km) Time Diff (sec)
1 04/04/2023 03:41:21 21.47, 148.05 04/04/2023 03:41:41 20.43, 143.18 518.40 20
2 04/06/2023 15:39:52 10.01, 153.17 04/06/2023 15:36:22 9.36, 149.24 436.61 210
3 04/14/2023 16:19:15 22.58, 145.39 04/14/2023 16:22:43 25.17, 140.37 586.08 208
4 04/17/2023 03:00:07 22.68, 158.28 04/17/2023 02:57:48 21.81, 153.96 454.95 139
5 04/19/2023 16:36:22 12.23, 139.50 04/19/2023 16:33:29 9.68, 135.06 561.35 173
6 04/27/2023 15:37:01 22.60, 156.07 04/27/2023 15:38:46 23.72, 151.14 520.16 105
